Home   Weather   Udon Thani   Past weeks

Flag for Thailand Past Weather in Udon Thani, Thailand — Yesterday and Last 2 Weeks

Now
91 °F

Passing clouds.


Feels Like: 99 °F
Forecast: 78 / 96 °F
Wind: 3 mph from North

Location: Udon Thani Airport

Current Time: Apr 26, 2017 at 5:25:34 pm

Latest Report: Apr 26, 2017 at 5:00 pm


Visibility: N/A

Pressure: 29.74 "Hg

Humidity: 52%

Dew Point: 72 °F

Location of Udon ThaniLocation

Past Weather in Udon Thani — Graph

°F

Udon Thani Temperature Yesterday

Maximum temperature yesterday: 84 °F (at 3:00 pm)
Minimum temperature yesterday: 73 °F (at 5:00 am)
Average temperature yesterday: 79 °F

High & Low Weather Summary for the Past Weeks

 TemperatureHumidityPressure
High100 °F (Apr 11, 4:00 pm)100% (Apr 12, 10:00 pm)29.98 "Hg (Apr 12, 10:00 pm)
Low72 °F (Apr 14, 5:00 am)29% (Apr 21, 4:00 pm)29.62 "Hg (Apr 11, 5:00 pm)
Average85 °F67%29.80 "Hg
* Reported Apr 11 4:00 pm — Apr 26 4:00 pm, Udon Thani, Weather by CustomWeather, © 2017

Note: Actual official high and low records may vary slightly from our data, if they occured in-between our weather recording intervals... More about our weather records

Advertising

Udon Thani Weather History for the Previous 24 Hours

Scroll right to see more
 ConditionsComfort  
Time TempWeatherWind HumidityBarometerVisibility
4:00 pm
Wed, Apr 26
91 °FScattered clouds.5 mph52%29.74 "HgN/A
3:00 pm91 °FScattered clouds.3 mph52%29.74 "Hg6 mi
2:00 pm91 °FScattered clouds.6 mph56%29.77 "HgN/A
1:00 pm91 °FScattered clouds.5 mph56%29.83 "HgN/A
12:00 pm90 °FPartly sunny.3 mph59%29.86 "HgN/A
11:00 am88 °FScattered clouds.6 mph62%29.89 "HgN/A
10:00 am82 °FPartly sunny.5 mph79%29.89 "HgN/A
9:00 am82 °FScattered clouds.2 mph74%29.89 "HgN/A
8:00 am79 °FPassing clouds.5 mph84%29.86 "HgN/A
7:00 am75 °FClear.3 mph94%29.86 "Hg5 mi
6:00 am73 °FFog.No wind100%29.83 "Hg3 mi
5:00 am73 °FPassing clouds.5 mph100%29.80 "Hg5 mi
10:00 pm
Tue, Apr 25
77 °FPassing clouds.3 mph89%29.83 "HgN/A
9:00 pm79 °FPassing clouds.3 mph84%29.80 "HgN/A
8:00 pm79 °FPassing clouds.3 mph84%29.80 "HgN/A
7:00 pm81 °FClear.7 mph79%29.77 "Hg10 mi
6:00 pm84 °FClear.No wind70%29.74 "Hg6 mi
5:00 pm84 °FPassing clouds.2 mph66%29.74 "HgN/A
Weather by CustomWeather, © 2017

See weather overviewHow to use our weather pages